This demonstration page uses our WeatherBlox Daily Observations layout. Learn more.

Left ArrowRight Arrow

Hourly Observations for March 18, 2015

Temp ( °F °C ) Dew Point ( °F °C ) Humidity (%) Winds ( mph kmh ) Pressure ( in mb ) Visibility ( mi km ) Precip ( " mm )
12:16 am 00:16 Clear 30 -1 14 -10 51 51 N N/A 30.36 1028 10 16 N/A
12:36 am 00:36 Clear 32 undefined 7 -14 34 34 NNW 3 6 30.36 1028 10 16 N/A
12:55 am 00:55 Clear 30 -1 10 -12 43 43 NW 3 6 30.36 1028 10 16 N/A
1:16 am 01:16 Clear 30 -1 12 -11 47 47 N 5 7 30.36 1028 10 16 N/A
1:36 am 01:36 Clear 30 -1 14 -10 51 51 N 5 7 30.36 1028 10 16 N/A
1:55 am 01:55 Clear 30 -1 16 -9 55 55 N 5 7 30.36 1028 10 16 N/A
2:16 am 02:16 Clear 30 -1 16 -9 55 55 NNE 6 9 30.33 1027 10 16 N/A
2:35 am 02:35 Clear 30 -1 16 -9 55 55 NNE 5 7 30.33 1027 10 16 N/A
2:55 am 02:55 Clear 30 -1 16 -9 55 55 NNE 6 9 30.33 1027 10 16 N/A
3:16 am 03:16 Clear 30 -1 14 -10 51 51 N 3 6 30.36 1028 10 16 N/A
3:35 am 03:35 Clear 30 -1 16 -9 55 55 N 3 6 30.36 1028 10 16 N/A
3:56 am 03:56 Clear 30 -1 16 -9 55 55 N 5 7 30.33 1027 10 16 N/A
4:16 am 04:16 Clear 28 -2 14 -10 55 55 N N/A 30.33 1027 10 16 N/A
4:35 am 04:35 Clear 28 -2 18 -8 64 64 N N/A 30.33 1027 10 16 N/A
4:56 am 04:56 Clear 28 -2 19 -7 69 69 N N/A 30.36 1028 10 16 N/A
5:16 am 05:16 Clear 28 -2 16 -9 59 59 N 3 6 30.36 1028 10 16 N/A
5:35 am 05:35 Clear 27 -3 16 -9 64 64 NNE 5 7 30.36 1028 10 16 N/A
5:56 am 05:56 Clear 25 -4 14 -10 63 63 NE 6 9 30.36 1028 10 16 N/A
6:16 am 06:16 Clear 27 -3 14 -10 59 59 NNE 6 9 30.36 1028 10 16 N/A
6:35 am 06:35 Clear 27 -3 14 -10 59 59 NNE 5 7 30.36 1028 10 16 N/A
6:56 am 06:56 Clear 27 -3 16 -9 64 64 N N/A 30.39 1029 10 16 N/A
7:15 am 07:15 Clear 27 -3 18 -8 69 69 WSW 3 6 30.39 1029 10 16 N/A
7:36 am 07:36 Clear 27 -3 18 -8 69 69 N N/A 30.39 1029 10 16 N/A
7:56 am 07:56 Sunny 27 -3 16 -9 64 64 N N/A 30.42 1030 10 16 N/A
8:15 am 08:15 Sunny 27 -3 21 -6 80 80 N N/A 30.39 1029 10 16 N/A
8:36 am 08:36 Sunny 27 -3 25 -4 93 93 N N/A 30.42 1030 10 16 N/A
8:56 am 08:56 Sunny 30 -1 19 -7 64 64 N N/A 30.39 1029 10 16 N/A
9:15 am 09:15 Sunny 34 1 10 -12 38 38 N N/A 30.39 1029 10 16 N/A
9:36 am 09:36 Sunny 32 undefined 10 -12 40 40 N N/A 30.39 1029 10 16 N/A
9:56 am 09:56 Sunny 34 1 7 -14 32 32 N N/A 30.39 1029 10 16 N/A
10:15 am 10:15 Sunny 37 3 7 -14 28 28 ESE 3 6 30.39 1029 10 16 N/A
10:36 am 10:36 Sunny 37 3 3 -16 23 23 ESE 3 6 30.36 1028 10 16 N/A
10:55 am 10:55 Sunny 37 3 5 -15 26 26 ESE 3 6 30.36 1028 10 16 N/A
11:16 am 11:16 Sunny 41 5 -2 -19 16 16 E 6 9 30.39 1029 10 16 N/A
11:36 am 11:36 Sunny 41 5 -2 -19 16 16 ESE 7 11 30.39 1029 10 16 N/A
11:55 am 11:55 Sunny 41 5 -2 -19 16 16 E 6 9 30.39 1029 10 16 N/A
12:16 pm 12:16 Sunny 43 6 -8 -22 11 11 N N/A 30.33 1027 10 16 N/A
12:36 pm 12:36 Sunny 41 5 -6 -21 13 13 ESE 7 11 30.36 1028 10 16 N/A
12:55 pm 12:55 Sunny 41 5 -6 -21 13 13 E 6 9 30.36 1028 10 16 N/A
1:16 pm 13:16 Sunny 43 6 -6 -21 12 12 N N/A 30.33 1027 10 16 N/A
1:36 pm 13:36 Sunny 45 7 -6 -21 12 12 ENE 7 11 30.33 1027 10 16 N/A
1:55 pm 13:55 Sunny 45 7 -4 -20 13 13 ESE 9 15 30.30 1026 10 16 N/A
2:16 pm 14:16 Sunny 46 8 -4 -20 12 12 E 8 13 30.30 1026 10 16 N/A
2:36 pm 14:36 Sunny 46 8 -6 -21 11 11 N N/A 30.27 1025 10 16 N/A
2:55 pm 14:55 Sunny 46 8 -6 -21 11 11 N N/A 30.27 1025 10 16 N/A
3:16 pm 15:16 Sunny 46 8 -6 -21 11 11 ENE 6 9 30.27 1025 10 16 N/A
3:35 pm 15:35 Sunny 46 8 -8 -22 10 10 NNE 3 6 30.27 1025 10 16 N/A
3:55 pm 15:55 Sunny 46 8 -6 -21 11 11 SE 5 7 30.27 1025 10 16 N/A
4:16 pm 16:16 Sunny 46 8 -2 -19 13 13 SSE 5 7 30.24 1024 10 16 N/A
4:35 pm 16:35 Sunny 46 8 -8 -22 10 10 ENE 5 7 30.24 1024 10 16 N/A
4:56 pm 16:56 Sunny 46 8 -8 -22 10 10 N N/A 30.24 1024 10 16 N/A
5:16 pm 17:16 Sunny 46 8 -8 -22 10 10 N N/A 30.24 1024 10 16 N/A
5:35 pm 17:35 Sunny 46 8 -6 -21 11 11 N N/A 30.24 1024 10 16 N/A
5:56 pm 17:56 Sunny 46 8 -6 -21 11 11 N N/A 30.24 1024 10 16 N/A
6:16 pm 18:16 Sunny 45 7 -4 -20 13 13 N N/A 30.24 1024 10 16 N/A
6:35 pm 18:35 Sunny 45 7 -4 -20 13 13 N N/A 30.24 1024 10 16 N/A
6:56 pm 18:56 Sunny 45 7 -6 -21 12 12 N N/A 30.24 1024 10 16 N/A
7:16 pm 19:16 Sunny 45 7 N/A 15 15 N N/A 30.24 1024 10 16 N/A
7:35 pm 19:35 Sunny 45 7 1 -17 16 16 N N/A 30.24 1024 10 16 N/A
7:56 pm 19:56 Clear 45 7 N/A 15 15 N N/A 30.24 1024 10 16 N/A
8:15 pm 20:15 Clear 43 6 12 -11 29 29 NNE 7 11 30.24 1024 10 16 N/A
8:36 pm 20:36 Clear 41 5 16 -9 36 36 NNE 5 7 30.24 1024 10 16 N/A
8:56 pm 20:56 Clear 41 5 16 -9 36 36 NNE 5 7 30.24 1024 10 16 N/A
9:15 pm 21:15 Clear 41 5 14 -10 33 33 NE 3 6 30.24 1024 10 16 N/A
9:36 pm 21:36 Clear 41 5 18 -8 39 39 NE 5 7 30.24 1024 10 16 N/A
9:55 pm 21:55 Clear 39 4 18 -8 42 42 ENE 5 7 30.27 1025 10 16 N/A
10:16 pm 22:16 Clear 39 4 16 -9 39 39 ENE 5 7 30.27 1025 10 16 N/A
10:36 pm 22:36 Clear 37 3 19 -7 48 48 ENE 6 9 30.27 1025 10 16 N/A
10:55 pm 22:55 Clear 37 3 18 -8 45 45 E 5 7 30.27 1025 10 16 N/A
11:16 pm 23:16 Clear 37 3 18 -8 45 45 ENE 5 7 30.27 1025 10 16 N/A
11:36 pm 23:36 Clear 39 4 16 -9 39 39 ENE 6 9 30.27 1025 10 16 N/A
11:55 pm 23:55 Clear 37 3 18 -8 45 45 ENE 5 7 30.27 1025 10 16 N/A

Powered by AerisWeather